Wind_Speed
10 10 10 10 9 9 9 8 9 9 9 9 9 10 11 12 12 12 13 14 15 16 17 18 19 19 19 19 20 21 22 22 24 24 25 25 26 27 28 28 29 29 29
9 9 9 9 9 8 8 8 8 8 8 8 9 10 11 11 11 12 13 14 15 16 17 18 19 19 19 19 20 20 21 22 23 24 25 25 25 26 26 27 27 28 28
8 8 8 8 8 8 8 7 8 8 8 8 9 10 10 11 11 12 13 14 15 16 16 18 18 18 18 18 19 20 21 22 23 24 24 24 24 25 25 26 27 28 29
7 7 8 8 8 7 7 7 7 7 8 8 8 9 10 11 12 12 12 13 15 16 16 16 16 17 18 18 19 20 21 22 22 23 23 23 23 24 25 26 27 27 28
7 7 7 7 7 6 6 6 6 7 7 7 8 9 10 10 11 11 12 13 15 16 16 15 15 17 18 18 19 20 21 22 22 22 22 22 23 23 24 25 25 26 27
7 7 7 7 6 6 6 6 6 7 7 7 8 8 9 9 10 11 12 13 14 15 14 14 15 17 18 19 20 21 22 22 22 22 22 23 24 24 25 25 25 25 26
6 7 7 7 6 6 5 6 7 7 7 7 7 7 8 10 11 12 14 15 15 15 14 15 16 17 18 19 21 21 22 22 22 23 22 22 23 24 25 25 25 26 26
6 6 7 7 6 5 5 6 7 7 6 7 7 8 10 12 13 15 15 15 16 16 16 16 17 17 18 20 21 21 21 22 22 22 23 23 23 23 24 24 24 24 24
7 7 6 6 6 5 5 6 6 7 7 8 9 10 12 13 14 15 15 16 17 17 16 16 17 18 18 19 20 21 22 22 22 22 22 23 23 23 24 24 24 24 23
6 6 6 6 6 6 6 7 7 7 8 9 10 12 13 14 15 15 16 16 16 17 17 16 16 17 18 19 20 21 22 22 22 22 22 23 23 23 23 23 24 24 23
6 6 6 6 6 7 7 7 8 9 9 10 12 12 13 14 15 15 16 16 16 17 17 16 17 18 18 19 20 21 22 22 22 23 23 23 22 22 23 23 23 23 23
6 6 6 7 7 7 8 8 9 10 11 11 12 13 14 15 16 16 16 16 17 17 17 17 18 18 18 19 20 21 22 22 23 22 21 21 21 22 23 23 22 22 22
7 7 7 7 7 8 9 9 10 11 12 13 14 15 16 16 16 16 16 16 16 17 17 18 18 19 19 20 21 21 22 22 22 21 20 20 20 21 22 22 22 22 23
7 8 8 8 8 8 9 10 11 12 13 14 15 16 16 16 16 15 15 15 16 16 17 18 19 19 20 20 21 22 22 22 21 20 20 20 20 21 21 21 22 22 23
7 8 9 9 10 10 10 11 12 13 14 15 15 16 16 16 16 15 15 15 16 17 18 19 19 20 20 20 21 21 21 21 21 20 20 20 21 21 21 22 22 22 22
8 9 10 10 11 11 11 12 13 14 14 15 15 15 15 15 15 15 15 16 17 17 18 19 19 19 20 20 20 21 21 20 20 20 20 20 21 21 22 22 22 22 22
9 10 10 10 11 11 12 13 14 14 15 15 16 16 16 16 16 16 17 17 17 18 18 19 19 19 19 20 21 21 20 20 19 20 20 21 21 21 22 22 22 22 22
10 10 10 10 11 12 13 14 15 15 15 16 16 15 16 16 16 17 17 17 17 18 18 18 18 18 18 19 20 21 20 19 19 20 21 21 21 22 22 22 23 23 22
10 11 11 11 12 12 13 14 15 16 16 16 16 15 16 16 17 17 17 17 17 18 18 18 17 18 18 19 20 20 20 20 20 21 21 21 21 22 22 23 22 22 21
11 11 11 12 13 14 14 15 16 16 17 16 16 16 16 17 17 17 17 17 17 18 18 18 18 18 20 20 19 20 20 21 21 21 22 22 22 22 22 22 22 22 22
11 12 12 13 14 15 15 16 16 17 17 17 16 16 16 17 18 18 17 17 17 17 17 18 18 19 20 20 20 20 20 21 21 22 22 23 22 22 22 21 21 21 21
12 13 13 14 14 15 16 16 17 17 17 17 17 17 17 18 18 18 17 17 17 16 16 17 18 19 20 20 20 20 20 20 21 22 23 23 22 21 21 20 20 20 20
13 14 15 15 15 16 17 17 17 17 17 17 18 18 18 18 18 17 17 18 17 16 16 17 18 19 20 21 21 21 21 21 21 22 23 23 22 21 21 20 20 19 20
15 16 16 16 16 16 17 17 17 17 17 18 18 18 18 18 18 18 18 18 17 17 17 18 19 19 20 20 21 21 21 22 22 23 23 22 22 21 21 20 20 20 20
16 17 17 17 17 17 17 17 17 18 18 18 18 18 18 18 18 18 17 17 18 18 18 18 19 19 19 20 20 21 22 22 22 22 22 23 22 21 21 20 20 21 21
17 17 17 17 17 17 17 17 18 18 18 18 19 18 18 18 18 17 17 17 18 18 18 18 19 19 19 20 20 21 21 21 21 21 22 22 22 21 21 21 21 21 21
Wind_Direction
297 300 303 306 305 299 296 289 285 283 283 284 284 285 287 287 284 283 283 281 281 283 285 288 291 293 292 293 293 293 295 296 296 296 294 292 291 290 288 285 283 284 282
302 299 302 305 307 305 299 291 287 289 287 284 286 288 290 288 286 287 290 288 287 287 289 292 293 292 293 293 294 295 297 299 299 299 297 293 290 290 290 288 287 286 285
315 310 306 304 302 304 301 295 288 289 290 289 289 291 294 298 295 294 295 295 294 294 295 296 294 295 297 297 298 299 301 301 301 301 299 297 295 294 293 291 290 290 288
319 317 315 311 306 307 306 301 291 293 293 293 297 299 303 305 304 298 299 300 302 302 301 300 299 299 300 300 302 303 303 303 303 303 302 300 299 296 294 293 293 292 289
326 328 328 318 314 312 309 300 294 299 304 301 299 306 313 312 307 303 304 306 306 305 305 303 302 303 303 304 305 306 305 304 305 305 302 302 302 300 298 298 297 295 293
329 331 333 330 320 313 304 301 299 303 305 302 305 309 316 319 313 308 310 312 312 312 310 306 304 304 304 305 306 307 306 306 306 306 305 304 304 304 303 302 303 300 297
332 332 334 337 332 317 302 300 305 308 307 308 313 320 325 326 324 318 316 318 318 317 315 310 308 306 305 308 307 308 308 309 308 307 307 307 306 306 306 305 304 303 301
335 336 335 335 338 334 324 318 317 314 315 318 320 319 319 320 318 317 318 320 319 318 315 311 308 308 309 310 309 309 310 311 309 308 308 308 309 309 309 309 309 308 305
329 333 334 334 333 329 325 328 324 321 320 319 319 317 318 319 319 321 322 322 322 320 315 313 312 311 312 313 314 315 315 313 312 310 310 310 311 312 311 311 311 313 311
329 331 332 332 329 325 322 324 322 321 320 319 320 318 318 321 323 324 323 322 323 322 319 316 316 316 315 315 317 319 318 316 315 314 314 315 314 314 314 314 313 313 314
330 332 333 333 327 325 323 321 320 320 320 320 323 323 324 325 324 324 324 323 324 325 322 319 318 318 317 316 317 319 320 319 316 315 315 316 317 317 318 318 317 316 316
333 334 333 331 328 326 325 324 324 323 323 323 323 323 324 326 326 324 325 325 326 328 327 324 322 321 320 321 320 321 321 323 321 319 318 318 318 319 321 322 322 321 320
332 330 330 328 323 323 323 325 325 325 323 321 321 322 324 324 324 324 324 325 326 328 328 327 325 325 324 323 322 321 322 323 325 324 321 319 319 321 323 324 323 323 323
326 327 328 328 322 320 322 323 324 324 323 321 321 323 324 324 323 323 325 327 327 328 330 330 330 327 326 325 325 325 325 325 326 326 325 323 323 323 323 324 325 325 324
328 328 325 326 325 321 325 324 324 324 323 324 325 326 327 327 326 326 328 328 328 327 330 331 331 332 332 330 329 330 329 329 330 329 328 325 324 325 325 326 326 327 327
321 322 324 324 326 324 328 329 326 323 324 325 326 327 327 327 326 326 326 327 327 327 328 331 332 332 333 334 334 334 334 333 332 331 332 330 327 327 328 328 329 329 329
319 319 320 323 325 325 325 326 324 323 326 329 328 326 326 326 327 327 327 327 328 329 329 329 332 333 334 335 336 336 335 335 335 334 334 333 331 330 330 330 330 330 331
322 322 321 321 322 323 324 325 326 327 328 329 329 328 326 327 328 328 326 327 328 328 329 330 332 334 336 338 338 337 337 337 337 337 337 335 334 334 333 333 332 330 332
318 321 323 324 325 325 325 327 328 329 329 329 330 329 327 327 327 326 325 325 326 327 327 328 330 333 335 335 336 337 339 339 337 337 337 337 335 334 334 335 335 335 335
313 315 318 320 323 326 327 327 326 326 327 328 328 328 328 327 327 326 325 325 324 325 326 327 330 331 333 334 335 336 337 339 338 338 337 336 335 335 335 336 338 338 338
310 311 315 317 319 323 325 326 326 326 326 328 329 330 330 330 329 327 327 326 326 326 327 329 331 332 333 335 335 336 338 338 339 339 338 337 337 336 335 336 337 339 340
305 308 311 313 316 319 321 322 322 323 324 324 326 327 329 329 330 329 329 330 330 331 332 333 333 333 334 337 337 337 337 338 338 338 339 339 340 340 339 338 339 341 343
303 306 309 311 313 314 316 319 321 320 320 319 322 324 325 327 328 328 327 327 327 330 332 333 334 336 337 336 337 337 338 338 339 339 339 339 340 341 341 340 341 342 343
302 305 307 309 311 312 314 316 318 318 316 317 319 321 322 323 325 325 325 326 326 327 328 329 332 334 336 338 338 338 337 338 339 340 342 343 343 343 344 344 344 344 344
298 301 303 306 308 310 312 314 315 317 318 317 317 318 319 321 323 323 323 325 326 327 327 328 330 331 333 335 335 336 337 338 340 341 342 343 345 346 347 347 346 345 345
296 299 302 304 306 308 310 313 316 317 318 317 317 317 320 322 322 322 323 323 325 326 326 328 329 329 331 332 333 333 335 337 339 340 340 341 343 345 345 345 345 344 344
Height
5789 5788 5786 5784 5782 5781 5780 5779 5778 5778 5777 5777 5776 5776 5775 5774 5773 5772 5771 5770 5769 5768 5766 5764 5763 5760 5758 5756 5754 5752 5749 5747 5744 5741 5737 5734 5731 5727 5724 5722 5719 5717 5715
5786 5785 5783 5782 5780 5779 5778 5777 5776 5775 5775 5774 5774 5773 5771 5770 5769 5768 5767 5766 5765 5763 5761 5759 5757 5754 5752 5750 5748 5745 5742 5739 5737 5733 5730 5726 5723 5719 5716 5713 5710 5708 5705
5784 5782 5781 5780 5778 5777 5776 5775 5774 5773 5772 5772 5771 5770 5769 5767 5766 5764 5763 5762 5760 5758 5756 5754 5751 5749 5747 5744 5742 5739 5736 5732 5729 5726 5722 5718 5715 5711 5708 5705 5702 5699 5697
5782 5780 5779 5777 5776 5775 5774 5773 5772 5771 5770 5770 5769 5767 5766 5765 5763 5761 5760 5758 5756 5753 5751 5749 5746 5744 5741 5739 5736 5733 5729 5726 5722 5718 5715 5711 5708 5704 5701 5698 5695 5691 5688
5780 5779 5777 5776 5774 5773 5772 5771 5771 5770 5769 5768 5766 5765 5764 5762 5760 5758 5756 5754 5752 5749 5746 5743 5741 5739 5736 5733 5730 5727 5723 5720 5716 5712 5708 5705 5701 5698 5694 5691 5687 5683 5680
5778 5777 5776 5774 5773 5772 5771 5770 5769 5768 5767 5766 5765 5763 5762 5760 5758 5755 5753 5751 5748 5745 5742 5739 5736 5734 5731 5727 5724 5721 5717 5714 5710 5706 5702 5698 5694 5691 5687 5683 5679 5676 5673
5777 5776 5775 5773 5772 5771 5770 5769 5768 5767 5766 5764 5763 5761 5759 5757 5755 5752 5750 5747 5744 5741 5737 5734 5731 5728 5726 5722 5719 5715 5711 5707 5704 5700 5696 5692 5688 5684 5681 5677 5672 5668 5664
5776 5775 5773 5772 5771 5770 5769 5768 5767 5765 5764 5763 5761 5759 5757 5755 5753 5750 5747 5743 5740 5737 5733 5730 5727 5724 5721 5717 5714 5710 5706 5702 5697 5694 5690 5686 5681 5678 5674 5669 5665 5661 5657
5775 5774 5772 5771 5770 5769 5768 5767 5766 5764 5763 5761 5759 5757 5755 5752 5750 5746 5743 5740 5736 5733 5729 5726 5722 5719 5716 5712 5709 5705 5700 5696 5691 5687 5683 5679 5675 5671 5667 5662 5658 5654 5651
5773 5772 5771 5770 5769 5768 5767 5766 5764 5763 5761 5759 5757 5755 5752 5749 5746 5743 5740 5736 5733 5729 5725 5722 5718 5715 5711 5707 5703 5699 5695 5690 5686 5682 5678 5673 5669 5665 5661 5656 5652 5648 5645
5772 5771 5770 5769 5768 5767 5766 5764 5763 5761 5759 5757 5755 5752 5749 5746 5743 5739 5736 5733 5729 5725 5721 5718 5714 5710 5707 5703 5699 5694 5690 5685 5681 5676 5672 5668 5664 5660 5655 5651 5647 5643 5639
5771 5770 5769 5768 5767 5765 5764 5763 5761 5759 5757 5754 5752 5749 5746 5743 5739 5736 5732 5729 5725 5721 5718 5714 5710 5706 5702 5698 5694 5690 5685 5681 5676 5672 5668 5664 5660 5655 5651 5646 5642 5637 5633
5770 5769 5768 5767 5765 5764 5763 5761 5759 5757 5754 5752 5749 5746 5742 5739 5735 5732 5728 5725 5721 5718 5714 5710 5706 5702 5698 5694 5690 5685 5681 5676 5672 5668 5664 5660 5655 5651 5646 5642 5638 5633 5629
5769 5768 5767 5765 5764 5762 5760 5759 5757 5754 5751 5748 5745 5742 5739 5735 5732 5728 5725 5721 5718 5714 5711 5707 5702 5698 5694 5690 5685 5681 5676 5672 5668 5664 5660 5656 5651 5647 5643 5638 5634 5630 5625
5768 5767 5765 5764 5762 5760 5758 5756 5754 5751 5748 5745 5742 5739 5735 5732 5729 5725 5722 5719 5715 5711 5708 5703 5699 5695 5690 5686 5681 5677 5673 5668 5664 5660 5656 5652 5648 5643 5639 5635 5630 5626 5621
5767 5765 5763 5762 5760 5758 5756 5753 5751 5748 5745 5742 5739 5736 5732 5729 5725 5722 5719 5716 5712 5708 5705 5701 5696 5692 5687 5683 5678 5674 5669 5665 5661 5657 5653 5648 5644 5640 5635 5631 5626 5622 5617
5765 5763 5761 5759 5758 5756 5753 5750 5748 5745 5742 5739 5735 5732 5729 5725 5722 5719 5716 5712 5709 5705 5701 5697 5693 5689 5684 5680 5675 5671 5666 5662 5658 5654 5650 5645 5640 5636 5632 5627 5622 5618 5613
5762 5760 5758 5757 5755 5753 5750 5747 5745 5742 5739 5736 5732 5729 5725 5722 5719 5716 5712 5709 5705 5701 5698 5694 5690 5686 5681 5677 5673 5668 5664 5659 5655 5651 5646 5642 5637 5632 5628 5624 5619 5614 5610
5760 5758 5756 5754 5752 5750 5747 5745 5742 5739 5736 5733 5729 5726 5723 5719 5716 5712 5709 5705 5702 5698 5694 5691 5687 5683 5679 5675 5670 5666 5661 5657 5653 5648 5643 5639 5634 5629 5625 5620 5616 5611 5607
5757 5756 5754 5752 5749 5747 5744 5742 5739 5736 5733 5730 5726 5723 5719 5716 5712 5709 5705 5701 5698 5694 5691 5687 5683 5680 5676 5672 5668 5663 5659 5655 5650 5645 5641 5636 5631 5626 5622 5617 5613 5609 5604
5754 5752 5751 5748 5746 5744 5741 5738 5735 5732 5729 5726 5723 5719 5716 5712 5709 5705 5701 5698 5694 5691 5687 5684 5680 5676 5672 5669 5665 5661 5656 5652 5647 5643 5638 5633 5628 5624 5619 5615 5610 5606 5601
5751 5749 5747 5745 5743 5740 5738 5735 5732 5729 5726 5723 5719 5716 5712 5709 5705 5701 5698 5694 5691 5687 5684 5680 5677 5673 5669 5665 5662 5658 5653 5649 5645 5640 5635 5630 5625 5620 5616 5612 5608 5604 5599
5746 5745 5743 5741 5739 5737 5734 5731 5728 5725 5722 5718 5715 5712 5709 5705 5701 5698 5694 5691 5688 5684 5681 5677 5674 5670 5666 5662 5658 5655 5650 5646 5641 5637 5632 5628 5623 5618 5614 5609 5605 5601 5597
5742 5740 5738 5737 5735 5732 5730 5727 5724 5721 5718 5714 5711 5708 5705 5701 5698 5694 5691 5687 5684 5681 5678 5674 5671 5667 5663 5659 5655 5651 5647 5643 5638 5634 5629 5625 5620 5616 5611 5607 5603 5599 5596
5737 5736 5734 5732 5730 5727 5725 5722 5719 5716 5713 5710 5707 5704 5700 5697 5694 5690 5687 5684 5680 5677 5674 5671 5667 5664 5660 5656 5652 5648 5644 5640 5636 5631 5627 5622 5618 5613 5609 5605 5601 5598 5594
5732 5731 5729 5727 5725 5722 5720 5718 5715 5712 5708 5705 5702 5699 5695 5692 5689 5686 5683 5680 5677 5674 5671 5667 5664 5661 5657 5653 5649 5645 5641 5637 5633 5628 5624 5620 5616 5612 5608 5603 5600 5596 5592